| time (UTC) | temp F | wind direction | speed MPH | gust MPH | rain 1hr in | rain 24hr in | rain mn in | humidity % | barometer mb |
| 20260503184754 | 64 | 20 | 0.0 | 0.0 | 0.00 | 0.00 | 0.00 | 16 | 1013.0 |
| 20260503183816 | 64 | 20 | 0.0 | 0.0 | 0.00 | 0.00 | 0.00 | 16 | 1013.0 |
| 20260503182838 | 63 | 21 | 0.0 | 0.0 | 0.00 | 0.00 | 0.00 | 16 | 1014.0 |
| 20260503181900 | 63 | 21 | 0.0 | 0.0 | 0.00 | 0.00 | 0.00 | 16 | 1014.0 |
| 20260503180922 | 63 | 21 | 0.0 | 0.0 | 0.00 | 0.00 | 0.00 | 16 | 1013.0 |
| 20260503175945 | 64 | 20 | 0.0 | 0.0 | 0.00 | 0.00 | 0.00 | 16 | 1013.0 |
| 20260503175007 | 64 | 20 | 0.0 | 0.0 | 0.00 | 0.00 | 0.00 | 16 | 1013.0 |
| 20260503174029 | 63 | 19 | 0.0 | 0.0 | 0.00 | 0.00 | 0.00 | 16 | 1013.0 |
| 20260503173054 | 64 | 21 | 0.0 | 0.0 | 0.00 | 0.00 | 0.00 | 15 | 1013.0 |
| 20260503171137 | 64 | 17 | 0.0 | 0.0 | 0.00 | 0.00 | 0.00 | 15 | 1013.0 |
| 20260503170157 | 64 | 17 | 0.0 | 0.0 | 0.00 | 0.00 | 0.00 | 15 | 1013.0 |
| 20260503150623 | 64 | 14 | 0.0 | 0.0 | 0.00 | 0.00 | 0.00 | 12 | 1014.0 |
| 20260503131049 | 65 | 14 | 0.0 | 0.0 | 0.00 | 0.00 | 0.00 | 13 | 1015.0 |
| 20260503130113 | 65 | 14 | 0.0 | 0.0 | 0.00 | 0.00 | 0.00 | 13 | 1015.0 |
| 20260503110537 | 66 | 13 | 0.0 | 0.0 | 0.00 | 0.00 | 0.00 | 12 | 1016.0 |
| 20260503081215 | 65 | 16 | 0.0 | 0.0 | 0.00 | 0.00 | 0.00 | 13 | 1016.0 |
| 20260503080241 | 65 | 16 | 0.0 | 0.0 | 0.00 | 0.00 | 0.00 | 13 | 1016.0 |
| 20260503072406 | 64 | 17 | 0.0 | 0.0 | 0.00 | 0.00 | 0.00 | 13 | 1016.0 |
| 20260503071428 | 64 | 18 | 0.0 | 0.0 | 0.00 | 0.00 | 0.00 | 13 | 1016.0 |
| 20260503070452 | 64 | 16 | 0.0 | 0.0 | 0.00 | 0.00 | 0.00 | 13 | 1016.0 |
| 20260503054748 | 63 | 20 | 0.0 | 0.0 | 0.00 | 0.00 | 0.00 | 15 | 1016.0 |
| 20260503053810 | 63 | 20 | 0.0 | 0.0 | 0.00 | 0.00 | 0.00 | 15 | 1016.0 |
| 20260503052832 | 63 | 20 | 0.0 | 0.0 | 0.00 | 0.00 | 0.00 | 15 | 1016.0 |
| 20260503051854 | 63 | 21 | 0.0 | 0.0 | 0.00 | 0.00 | 0.00 | 15 | 1016.0 |
| 20260503050916 | 63 | 21 | 0.0 | 0.0 | 0.00 | 0.00 | 0.00 | 15 | 1016.0 |
| 20260503045938 | 63 | 19 | 0.0 | 0.0 | 0.00 | 0.00 | 0.00 | 15 | 1016.0 |
| 20260503045000 | 63 | 20 | 0.0 | 0.0 | 0.00 | 0.00 | 0.00 | 15 | 1016.0 |
| 20260503044023 | 63 | 19 | 0.0 | 0.0 | 0.00 | 0.00 | 0.00 | 15 | 1016.0 |
| 20260503043045 | 63 | 19 | 0.0 | 0.0 | 0.00 | 0.00 | 0.00 | 16 | 1016.0 |
| 20260503042113 | 63 | 20 | 0.0 | 0.0 | 0.00 | 0.00 | 0.00 | 16 | 1016.0 |
| 20260503041129 | 63 | 22 | 0.0 | 0.0 | 0.00 | 0.00 | 0.00 | 16 | 1016.0 |
| 20260503040151 | 63 | 23 | 0.0 | 0.0 | 0.00 | 0.00 | 0.00 | 16 | 1016.0 |
| 20260503035213 | 63 | 21 | 0.0 | 0.0 | 0.00 | 0.00 | 0.00 | 16 | 1016.0 |
| 20260503034239 | 63 | 23 | 0.0 | 0.0 | 0.00 | 0.00 | 0.00 | 16 | 1016.0 |
| 20260503033301 | 63 | 23 | 0.0 | 0.0 | 0.00 | 0.00 | 0.00 | 16 | 1016.0 |
| 20260503032320 | 63 | 24 | 0.0 | 0.0 | 0.00 | 0.00 | 0.00 | 18 | 1016.0 |
| 20260503031342 | 63 | 22 | 0.0 | 0.0 | 0.00 | 0.00 | 0.00 | 16 | 1016.0 |
| 20260503030404 | 63 | 23 | 0.0 | 0.0 | 0.00 | 0.00 | 0.00 | 16 | 1016.0 |
| 20260503025430 | 63 | 23 | 0.0 | 0.0 | 0.00 | 0.00 | 0.00 | 16 | 1017.0 |
| 20260503024448 | 64 | 24 | 0.0 | 0.0 | 0.00 | 0.00 | 0.00 | 16 | 1017.0 |
| 20260503023511 | 64 | 24 | 0.0 | 0.0 | 0.00 | 0.00 | 0.00 | 16 | 1017.0 |
| 20260503022537 | 64 | 23 | 0.0 | 0.0 | 0.00 | 0.00 | 0.00 | 16 | 1017.0 |
| 20260503021555 | 64 | 20 | 0.0 | 0.0 | 0.00 | 0.00 | 0.00 | 16 | 1017.0 |
| 20260503015639 | 64 | 21 | 0.0 | 0.0 | 0.00 | 0.00 | 0.00 | 16 | 1017.0 |
| 20260503014701 | 64 | 24 | 0.0 | 0.0 | 0.00 | 0.00 | 0.00 | 16 | 1017.0 |
| 20260503013726 | 64 | 21 | 0.0 | 0.0 | 0.00 | 0.00 | 0.00 | 16 | 1017.0 |
| 20260503012745 | 64 | 21 | 0.0 | 0.0 | 0.00 | 0.00 | 0.00 | 16 | 1017.0 |
| 20260503011811 | 64 | 23 | 0.0 | 0.0 | 0.00 | 0.00 | 0.00 | 16 | 1017.0 |
| 20260503010830 | 64 | 21 | 0.0 | 0.0 | 0.00 | 0.00 | 0.00 | 16 | 1017.0 |
| 20260503005852 | 64 | 21 | 0.0 | 0.0 | 0.00 | 0.00 | 0.00 | 16 | 1017.0 |
| 20260503004914 | 64 | 22 | 0.0 | 0.0 | 0.00 | 0.00 | 0.00 | 16 | 1018.0 |
| 20260503003936 | 64 | 21 | 0.0 | 0.0 | 0.00 | 0.00 | 0.00 | 16 | 1018.0 |
| 20260503003000 | 64 | 20 | 0.0 | 0.0 | 0.00 | 0.00 | 0.00 | 16 | 1018.0 |
| 20260503002024 | 64 | 21 | 0.0 | 0.0 | 0.00 | 0.00 | 0.00 | 16 | 1018.0 |
| 20260503001044 | 64 | 21 | 0.0 | 0.0 | 0.00 | 0.00 | 0.00 | 16 | 1018.0 |
| 20260503000109 | 64 | 19 | 0.0 | 0.0 | 0.00 | 0.00 | 0.00 | 16 | 1018.0 |
| 20260502235127 | 64 | 21 | 0.0 | 0.0 | 0.00 | 0.00 | 0.00 | 16 | 1018.0 |
| 20260502234149 | 64 | 22 | 0.0 | 0.0 | 0.00 | 0.00 | 0.00 | 16 | 1018.0 |
| 20260502232233 | 64 | 23 | 0.0 | 0.0 | 0.00 | 0.00 | 0.00 | 18 | 1018.0 |
| 20260502231256 | 64 | 23 | 0.0 | 0.0 | 0.00 | 0.00 | 0.00 | 18 | 1018.0 |
| 20260502230318 | 64 | 26 | 0.0 | 0.0 | 0.00 | 0.00 | 0.00 | 18 | 1018.0 |
| 20260502225340 | 64 | 24 | 0.0 | 0.0 | 0.00 | 0.00 | 0.00 | 18 | 1018.0 |
| 20260502224402 | 64 | 23 | 0.0 | 0.0 | 0.00 | 0.00 | 0.00 | 18 | 1018.0 |
| 20260502223424 | 64 | 24 | 0.0 | 0.0 | 0.00 | 0.00 | 0.00 | 18 | 1018.0 |
| 20260502222446 | 64 | 24 | 0.0 | 0.0 | 0.00 | 0.00 | 0.00 | 18 | 1018.0 |
| 20260502221509 | 64 | 23 | 0.0 | 0.0 | 0.00 | 0.00 | 0.00 | 18 | 1018.0 |
| 20260502220531 | 64 | 22 | 0.0 | 0.0 | 0.00 | 0.00 | 0.00 | 18 | 1019.0 |
| 20260502215555 | 64 | 24 | 0.0 | 0.0 | 0.00 | 0.00 | 0.00 | 16 | 1019.0 |
| 20260502214615 | 64 | 21 | 0.0 | 0.0 | 0.00 | 0.00 | 0.00 | 16 | 1019.0 |
| 20260502213637 | 64 | 24 | 0.0 | 0.0 | 0.00 | 0.00 | 0.00 | 18 | 1019.0 |
| 20260502212701 | 64 | 23 | 0.0 | 0.0 | 0.00 | 0.00 | 0.00 | 18 | 1019.0 |
| 20260502211721 | 64 | 23 | 0.0 | 0.0 | 0.00 | 0.00 | 0.00 | 18 | 1019.0 |
| 20260502210744 | 64 | 22 | 0.0 | 0.0 | 0.00 | 0.00 | 0.00 | 16 | 1019.0 |
| 20260502203852 | 64 | 23 | 0.0 | 0.0 | 0.00 | 0.00 | 0.00 | 16 | 1019.0 |
| 20260502202912 | 64 | 23 | 0.0 | 0.0 | 0.00 | 0.00 | 0.00 | 16 | 1019.0 |
| 20260502201934 | 64 | 22 | 0.0 | 0.0 | 0.00 | 0.00 | 0.00 | 16 | 1019.0 |
| 20260502200956 | 64 | 21 | 0.0 | 0.0 | 0.00 | 0.00 | 0.00 | 16 | 1019.0 |
| 20260502200019 | 64 | 24 | 0.0 | 0.0 | 0.00 | 0.00 | 0.00 | 16 | 1019.0 |
| 20260502195041 | 64 | 23 | 0.0 | 0.0 | 0.00 | 0.00 | 0.00 | 16 | 1019.0 |
| 20260502194103 | 64 | 22 | 0.0 | 0.0 | 0.00 | 0.00 | 0.00 | 16 | 1019.0 |
| 20260502193125 | 64 | 22 | 0.0 | 0.0 | 0.00 | 0.00 | 0.00 | 16 | 1018.0 |
| 20260502192147 | 64 | 21 | 0.0 | 0.0 | 0.00 | 0.00 | 0.00 | 16 | 1018.0 |
| 20260502191209 | 64 | 20 | 0.0 | 0.0 | 0.00 | 0.00 | 0.00 | 16 | 1018.0 |
| 20260502190231 | 64 | 21 | 0.0 | 0.0 | 0.00 | 0.00 | 0.00 | 16 | 1018.0 |
| 20260502185254 | 64 | 20 | 0.0 | 0.0 | 0.00 | 0.00 | 0.00 | 16 | 1019.0 |